STARLINK-11233 [DTC] (61061 NORAD) Tracking and Keplerian Element Data

This shows tracking and keplerian element data for the satellite.

Feedback or suggestion? Click here.




ElementValue
Catalog61061
NameSTARLINK-11233 [DTC]
Epoch Orbit481
Epoch Day286.49279057
Epoch Year2024
RAAN321.2862
Inclination53.1574
Eccentricity0.000135
Argument of Perigee92.5958
Mean Anonmoly267.5214
Mean Motion15.69714432
Decay Rate0.00010143
L11 61061U 24164M 24286.49279057 .00010143 00000+0 88464-4 0 9998
L22 61061 53.1574 321.2862 0001350 92.5958 267.5214 15.69714432 4814



Live tracking and technical data element details for STARLINK-11233 [DTC] (NORAD 61061). STARLINK-11233 [DTC] can be tracked NOW for your location showing map with azimuth and elevation plus other details from your city location.







IsCatalogInMostPopularTable: catalog: 61061, numindb: 23
Update: records affected: 1



GetName: 61061 STARLINK-11233 [DTC]

Hit Count: updated at: Wed, 04 Dec 2024 09:59:19 GMT